Wind_Speed
29 29 28 25 27 26 22 23 28 29 24 21 23 23 23 21 19 18 16 16 16 15 14 13 12 11 10 10 8 7 7 7 6 5 3 1 2 2 2 3 4 4 5 6 5 5 5 5 4 4 4 4 4 5 6 8 10 10 11 13 13 12 12 12 12 13 14 13 11 10 10 9 7 10 13 13 11 11 11 11 10 10 10 10 11
30 30 29 29 31 28 23 27 33 33 28 25 26 25 23 21 20 19 17 16 16 14 13 13 12 10 9 9 8 7 5 4 4 2 2 2 3 3 4 4 5 5 7 7 6 6 7 6 6 5 4 4 4 4 4 5 6 9 11 12 12 11 11 11 11 12 14 14 12 10 10 9 7 8 11 13 13 13 13 13 12 12 11 11 11
31 32 32 33 34 30 26 30 34 35 33 30 29 26 25 24 22 20 17 18 17 15 14 13 12 11 10 10 9 8 6 5 4 3 3 4 5 5 6 6 6 6 7 7 7 7 7 6 5 5 5 4 3 3 3 2 3 6 8 10 10 11 11 11 11 11 12 13 12 11 9 8 8 9 10 12 12 12 13 14 14 14 13 12 12
33 33 34 35 36 33 30 33 34 34 35 33 30 28 27 24 21 20 19 19 19 17 16 14 13 13 12 11 10 9 7 7 6 5 6 6 7 7 6 5 6 7 6 6 6 6 4 2 2 4 4 3 1 1 2 1 1 3 6 8 9 10 10 10 10 10 11 11 10 10 10 9 7 8 9 10 10 11 11 11 12 13 14 15 15
37 36 37 38 38 35 31 34 34 31 33 32 29 29 28 23 20 19 20 20 19 18 17 16 16 15 14 13 12 10 10 9 9 8 8 8 8 7 6 6 5 5 4 4 5 4 2 2 2 3 3 1 1 1 1 1 1 1 4 7 8 8 7 7 7 7 8 10 9 8 8 8 7 6 6 6 7 8 8 9 9 10 12 14 15
37 39 39 39 38 35 32 34 34 31 32 31 28 28 26 22 20 20 20 20 20 19 19 18 17 16 15 14 13 13 12 11 10 9 9 8 7 7 7 6 5 4 4 4 4 3 2 2 2 2 2 1 1 0 1 1 1 1 2 4 5 5 5 4 5 5 6 9 10 9 6 6 6 6 5 3 3 4 5 6 6 6 7 10 12
34 36 38 38 36 34 34 35 33 31 30 27 26 26 24 22 21 21 21 21 20 20 20 20 19 18 15 13 12 11 10 10 9 8 7 7 6 6 6 6 6 5 5 4 4 4 3 2 2 2 2 2 2 3 3 2 1 2 2 2 3 2 2 2 3 4 5 7 9 8 7 6 5 4 4 4 3 4 3 3 3 2 2 3 6
33 35 36 36 34 33 34 34 32 31 28 25 25 24 23 22 23 23 22 22 22 22 22 21 20 17 14 13 11 9 7 7 7 7 6 6 5 5 6 7 7 7 7 6 5 5 4 3 2 2 2 3 4 5 6 5 3 3 3 2 2 3 3 2 1 2 3 4 6 7 7 7 6 5 4 5 4 5 4 3 2 1 1 1 1
33 35 35 34 33 33 33 32 31 32 29 23 22 23 24 24 25 24 24 24 24 24 24 22 19 16 12 12 11 9 8 8 7 7 7 6 5 5 6 6 7 7 7 7 7 5 4 3 1 1 1 1 2 3 3 2 3 2 1 1 1 2 3 4 3 3 3 3 5 6 6 6 6 6 5 4 4 4 5 5 4 3 3 3 3
32 33 34 33 32 31 31 31 32 34 30 23 21 23 26 26 26 27 27 27 27 26 24 21 19 16 12 12 12 11 10 10 10 9 7 6 6 6 6 5 5 5 5 5 5 4 2 1 3 3 3 3 5 6 5 4 3 2 2 2 2 1 2 2 2 3 4 3 3 2 1 1 2 3 2 2 2 3 4 5 6 5 5 5 3
30 31 32 32 31 30 32 33 31 29 27 26 26 24 26 27 28 29 29 29 28 26 23 21 20 18 15 14 13 12 12 13 12 10 8 7 7 6 6 6 5 4 4 4 4 3 4 5 6 5 5 6 7 8 9 8 6 5 5 4 4 4 3 2 2 3 3 2 1 1 1 1 1 1 1 0 1 1 2 4 5 5 5 5 2
30 31 32 33 32 32 33 34 31 26 25 28 29 23 23 27 28 29 30 29 28 25 23 22 21 21 19 17 15 13 13 14 12 9 8 7 7 8 8 7 7 6 6 6 7 6 7 7 7 6 6 6 6 7 7 8 8 7 7 6 5 5 5 5 4 3 2 1 1 1 1 1 1 2 2 2 2 1 2 3 3 4 4 3 3
29 31 33 34 34 34 35 34 33 31 29 30 28 23 23 25 26 29 31 29 27 25 25 24 24 23 21 20 17 14 14 15 12 9 8 8 8 8 8 8 8 8 8 8 9 9 8 7 6 5 5 5 5 5 6 7 8 7 7 6 6 6 6 6 5 4 3 3 3 3 3 3 2 2 3 4 3 2 1 2 2 4 4 4 3
29 31 33 34 34 34 34 36 35 32 31 31 27 24 23 23 26 30 31 29 27 26 26 24 24 23 22 21 18 16 16 17 13 11 9 9 9 9 9 9 9 8 9 9 9 9 9 8 6 5 6 7 6 6 7 7 8 8 7 7 6 7 7 6 5 5 4 4 4 4 4 4 4 3 4 5 4 4 3 2 1 2 4 5 5
26 29 31 33 34 34 33 34 32 27 28 29 26 25 25 26 30 30 28 27 26 26 26 24 23 22 21 21 19 17 18 17 15 13 12 11 11 11 11 10 10 9 9 9 9 9 9 9 9 8 8 8 8 7 7 8 8 8 8 8 8 8 8 7 6 5 5 5 4 4 4 4 4 4 5 5 5 6 5 4 2 2 5 7 7
23 26 28 28 28 30 30 28 24 22 25 27 26 25 25 29 30 26 26 29 28 28 27 23 22 22 22 22 20 19 19 18 17 15 14 14 13 12 12 11 11 11 10 10 9 9 9 9 10 9 9 8 8 7 7 7 7 7 7 8 8 9 9 8 7 7 7 6 4 4 5 6 5 5 5 5 6 6 6 5 4 4 6 8 8
15 15 19 21 21 24 26 24 21 22 26 27 26 24 24 28 28 26 30 33 29 28 26 24 24 24 24 24 22 20 19 18 18 17 16 16 15 13 12 12 12 11 10 9 9 8 8 7 7 7 7 7 6 6 5 5 5 5 5 6 7 8 8 8 8 8 7 7 6 6 6 6 6 6 5 5 6 6 6 7 7 7 6 7 7
11 7 8 13 15 16 19 18 18 22 26 26 25 23 23 25 25 26 30 31 26 24 24 26 27 26 25 25 23 20 18 16 16 17 17 16 16 15 14 13 11 10 9 8 7 7 6 5 4 3 3 4 4 4 3 3 3 2 2 3 4 4 6 6 7 7 7 7 6 5 6 6 5 5 5 5 6 6 7 7 8 9 8 7 6
7 5 7 9 8 8 10 11 13 18 23 24 23 23 22 22 21 21 23 21 20 20 22 25 27 27 27 26 23 21 18 14 14 16 17 17 17 16 14 12 10 9 9 8 7 6 5 4 4 3 2 2 2 2 2 2 1 1 1 1 0 1 1 3 4 4 4 5 5 4 5 5 5 4 4 5 5 6 7 7 8 8 8 8 8
12 12 9 8 7 6 6 8 11 15 18 19 19 19 18 18 17 17 17 16 16 18 20 24 27 28 29 27 24 23 20 14 13 15 16 16 16 15 14 11 9 7 6 5 5 4 4 4 4 4 4 4 3 3 2 2 3 2 2 2 2 2 2 2 2 2 2 3 3 3 2 4 4 4 3 4 4 4 5 5 6 6 7 8 7
13 11 10 9 7 6 6 7 9 11 12 12 11 11 12 13 14 15 16 15 15 16 20 24 27 29 30 28 25 25 21 15 13 14 14 14 14 14 12 9 7 6 5 5 4 3 3 3 4 4 4 5 5 5 4 4 4 3 3 3 4 4 4 4 4 3 3 3 2 2 2 1 2 2 2 2 2 3 3 4 4 5 6 6 6
12 9 8 8 7 7 7 7 8 8 9 8 8 8 9 10 11 12 14 14 15 17 21 25 27 28 28 25 23 23 21 16 15 15 13 14 14 13 11 10 9 8 8 7 6 6 6 6 7 6 6 6 6 6 5 5 4 5 4 4 4 4 5 5 5 5 5 5 4 3 3 3 3 2 1 1 1 2 2 3 4 5 6 7 7
12 9 7 6 7 8 7 7 7 7 7 7 6 6 7 8 9 10 11 13 15 18 21 24 25 24 25 24 20 19 18 17 18 16 14 15 14 13 13 12 12 11 10 9 9 9 10 10 10 9 9 9 8 8 7 7 6 5 6 5 5 5 5 5 4 4 5 5 5 5 5 5 5 5 3 2 2 2 3 4 5 5 7 8 10
16 15 12 10 9 9 8 7 7 7 7 7 6 6 6 6 7 8 10 11 14 19 21 22 23 23 25 24 20 18 19 20 21 18 17 17 16 15 15 14 14 14 12 12 12 13 15 15 13 13 13 12 11 11 11 10 8 7 7 7 7 8 7 6 5 4 5 5 5 5 6 6 7 7 5 4 3 3 3 4 5 6 7 9 11
18 17 15 14 12 11 9 8 7 6 6 6 7 6 6 6 6 7 8 8 12 18 21 21 21 21 24 24 19 18 21 23 21 20 19 19 17 17 16 16 17 17 16 17 17 19 20 21 19 17 17 16 15 15 14 13 12 11 10 10 9 9 10 9 9 8 7 7 6 6 6 6 7 7 6 5 4 3 3 4 6 7 9 11 13
20 17 16 15 14 12 11 9 8 7 6 6 6 7 7 6 6 5 4 5 10 16 18 19 18 17 19 21 18 19 23 22 20 19 20 20 19 18 18 20 21 21 21 21 21 22 22 23 23 22 22 22 19 18 18 17 16 15 15 14 14 13 13 13 13 12 11 10 9 8 8 7 6 6 6 6 5 5 5 6 7 8 10 12 15
21 19 18 17 15 14 12 11 9 8 7 7 7 8 9 8 7 5 4 5 7 10 12 13 15 15 17 18 18 21 22 21 19 19 19 20 20 21 22 22 23 24 24 23 23 23 22 22 23 23 25 24 22 20 21 20 19 19 19 18 18 18 17 17 16 16 15 14 13 12 11 10 8 6 6 7 7 7 8 8 8 8 10 12 15
21 20 19 18 18 16 14 13 11 9 10 8 8 9 10 10 8 5 4 4 4 5 7 9 11 13 14 16 18 19 19 18 18 20 21 21 22 23 23 23 24 25 24 24 24 23 22 23 23 24 24 22 21 21 22 22 22 22 22 21 20 20 20 20 20 19 18 17 16 15 15 14 12 10 9 9 9 10 11 10 9 8 9 11 14
21 20 19 19 19 17 15 14 13 12 12 11 10 10 9 9 9 7 6 5 4 5 6 7 9 10 12 14 15 17 17 17 18 19 20 21 21 22 22 23 24 23 23 23 23 22 22 24 24 24 23 21 22 23 24 24 25 25 25 25 24 23 22 21 21 21 20 20 19 18 18 18 17 15 13 12 13 14 14 12 11 10 10 11 13
20 20 20 19 19 18 17 17 17 16 16 15 14 12 11 11 10 10 9 8 6 6 5 5 6 7 7 7 8 10 11 11 10 10 10 11 12 13 14 15 15 14 14 15 15 15 16 18 18 17 17 18 19 20 21 21 21 21 22 23 23 22 21 20 20 20 21 22 21 21 20 20 20 19 17 16 16 17 17 16 14 13 12 13 15
18 19 20 20 19 19 19 20 20 20 18 18 17 15 14 13 13 13 12 10 8 7 7 8 8 7 6 7 8 9 10 9 8 7 7 6 6 7 7 7 6 6 7 7 8 8 9 10 10 10 9 9 10 12 13 14 15 17 19 20 21 21 20 19 19 20 21 20 21 22 22 22 23 22 20 20 19 19 19 18 17 16 15 15 17
15 16 18 19 20 20 20 20 21 20 19 18 17 17 16 15 14 13 12 11 10 8 8 9 9 8 6 7 8 8 8 7 7 7 6 6 6 6 6 5 5 5 5 5 5 6 7 8 9 10 8 7 7 8 9 10 10 13 16 17 18 19 19 19 20 20 20 20 21 21 22 23 24 24 23 22 21 21 21 20 19 19 19 19 19
14 15 16 18 18 20 20 20 20 19 18 17 16 17 17 17 16 15 14 13 12 10 9 9 8 7 5 4 5 5 5 4 4 5 4 4 4 4 5 5 5 5 6 6 7 7 8 9 9 10 10 10 9 8 9 9 8 9 11 12 12 13 15 16 16 16 17 19 20 21 21 22 24 24 23 22 23 22 22 21 21 21 20 20 20
14 15 17 19 19 19 19 20 20 19 17 16 16 16 17 17 16 16 15 14 14 13 12 10 9 8 7 6 5 5 4 4 5 5 5 5 5 5 5 6 6 7 8 9 9 10 11 11 11 11 11 11 11 10 9 9 9 9 10 10 10 10 11 12 13 13 14 14 15 17 18 20 23 25 24 24 24 24 23 22 22 21 20 21 22
14 15 17 18 17 17 17 18 19 17 15 14 13 13 14 15 14 13 12 13 13 12 11 11 10 9 8 8 7 6 6 6 6 6 6 7 7 8 8 9 9 10 11 11 12 12 13 13 13 13 12 12 11 10 9 9 10 11 11 11 11 11 10 10 10 10 10 10 10 12 14 18 23 25 25 25 25 24 23 23 22 21 21 22 25
12 12 14 16 16 14 11 11 13 13 12 12 11 10 10 11 11 11 11 11 11 10 10 10 10 10 10 9 8 7 7 7 7 6 6 6 7 8 9 9 10 10 10 10 10 11 11 11 12 12 12 12 11 10 10 10 11 11 12 13 13 11 9 9 9 9 8 7 8 10 14 19 23 24 24 24 24 24 23 22 21 21 22 24 26
9 6 5 7 8 4 3 4 8 11 12 11 10 9 8 7 8 9 9 10 10 10 9 9 9 9 10 9 8 8 8 8 7 7 6 7 8 9 10 11 10 10 10 10 10 11 12 13 13 13 12 11 11 10 10 10 11 12 13 13 12 11 10 10 9 8 6 6 7 10 15 20 22 23 23 23 23 22 22 21 22 23 24 25 26
12 9 8 4 1 3 4 5 5 6 7 6 6 6 5 4 4 6 7 8 9 9 8 7 7 8 8 9 9 9 9 9 9 8 8 9 9 10 11 12 12 12 12 13 14 14 16 16 16 16 14 13 11 10 10 10 10 11 12 12 12 11 11 10 8 7 6 7 9 11 15 19 21 22 22 22 22 22 22 23 24 24 25 25 26
11 10 9 8 5 3 0 3 3 3 4 5 7 9 8 8 8 7 7 8 8 8 8 7 7 8 9 9 9 9 10 10 10 10 10 11 11 12 13 14 15 15 15 15 16 16 16 16 16 17 17 15 13 12 11 10 10 10 10 10 10 10 9 8 8 7 7 9 11 13 14 16 18 20 21 22 22 22 22 23 24 24 25 27 28
8 7 6 5 4 2 1 1 1 2 3 3 5 9 12 13 14 13 14 13 12 11 12 12 12 12 11 11 10 9 9 9 10 11 12 13 14 14 15 15 16 16 16 16 16 16 17 18 19 19 18 16 14 13 12 12 11 10 9 9 9 9 9 8 8 8 9 11 13 14 15 16 17 18 20 21 21 21 22 23 24 25 26 28 28
6 5 6 5 3 2 3 3 2 1 1 2 3 6 9 12 13 13 14 14 13 13 14 14 14 14 13 13 12 11 11 10 10 11 12 13 14 14 14 14 14 15 15 16 16 18 19 20 20 17 15 14 14 13 13 13 12 10 9 9 10 11 10 10 10 11 12 12 13 14 15 16 17 18 20 21 21 23 24 24 25 26 26 27 27
10 10 10 10 8 7 7 8 8 6 5 4 4 6 7 9 12 13 13 14 14 14 14 14 14 14 14 14 14 13 13 13 13 13 13 14 14 14 15 16 16 17 18 19 19 20 19 18 15 12 11 12 12 12 13 13 12 11 10 10 10 11 11 11 12 13 14 14 15 16 16 17 18 20 20 21 22 23 24 24 24 25 25 26 26
11 12 13 14 13 11 11 11 11 12 13 12 11 9 9 10 12 13 13 14 15 15 15 15 15 15 16 16 16 15 15 15 15 15 15 16 17 18 18 18 19 20 20 20 19 18 16 14 13 12 12 12 13 13 13 12 12 12 11 10 11 13 14 14 14 14 15 16 17 18 18 18 19 19 20 21 22 22 23 23 23 23 24 25 26
13 13 14 15 15 15 15 14 13 13 15 16 17 16 14 13 13 13 14 16 17 17 17 17 17 17 17 17 17 16 17 17 16 16 17 18 19 20 19 19 20 21 20 19 17 16 14 14 15 15 14 14 14 14 14 13 13 12 12 13 15 17 17 16 16 16 16 16 17 17 17 17 17 18 19 20 20 20 20 21 21 22 23 24 25
18 18 17 18 18 18 19 19 17 15 14 15 17 19 19 18 16 13 14 16 18 18 19 20 20 19 18 17 17 17 17 18 18 18 19 19 19 19 19 19 19 19 19 18 17 17 17 17 18 17 16 16 16 15 14 14 14 14 15 17 19 19 16 15 15 15 15 16 16 15 15 16 16 17 17 17 17 17 18 19 20 21 22 23 24
23 22 22 22 22 22 22 22 21 20 18 16 15 15 16 18 17 15 15 16 18 18 20 21 21 21 20 19 18 17 17 17 17 17 17 18 18 19 19 19 19 20 20 21 21 21 20 19 19 19 18 17 17 17 16 16 16 16 17 18 18 16 14 13 14 14 14 15 14 14 14 14 14 14 13 13 14 15 16 17 18 20 21 22 23
26 26 26 26 27 26 25 24 23 23 22 21 20 16 12 11 12 12 14 17 18 18 19 21 21 21 21 20 20 19 18 17 17 18 18 18 19 19 20 20 21 21 23 23 23 22 21 19 19 20 20 19 19 18 18 17 17 17 17 16 15 13 12 13 14 14 13 13 12 11 11 10 10 11 11 12 13 14 15 16 17 19 20 21 22
24 25 25 26 27 27 27 26 25 24 22 22 23 22 19 15 12 11 12 14 16 17 18 19 20 20 21 21 20 20 20 20 21 21 21 21 20 20 21 20 20 20 21 22 22 22 21 20 21 20 20 20 20 19 18 17 17 16 15 14 14 13 12 13 13 13 12 11 9 8 8 8 9 10 10 11 12 13 14 15 16 17 19 20 21
25 25 25 26 26 26 26 26 26 24 23 23 23 23 23 22 20 18 16 16 16 16 17 18 18 19 19 19 20 20 20 21 22 23 22 22 21 21 22 21 20 20 20 21 22 22 22 22 21 20 20 20 20 19 18 18 17 15 12 12 12 11 11 12 12 11 9 8 7 7 7 8 9 9 10 11 11 12 13 14 16 17 18 19 21
27 27 27 27 27 27 27 27 26 25 24 24 24 24 23 23 24 24 23 22 21 20 20 20 20 20 20 20 20 20 20 21 22 22 22 22 22 22 22 21 21 21 22 23 24 24 24 22 20 20 20 19 17 17 17 18 18 15 13 12 11 11 11 10 9 8 6 6 5 6 7 7 8 8 9 10 11 12 14 15 17 18 20 21 22
30 29 28 28 27 27 28 27 27 26 25 25 25 24 24 23 23 24 25 25 25 24 24 23 22 21 21 21 20 20 20 20 20 20 21 22 23 23 23 23 23 23 24 25 26 25 24 21 20 20 19 17 16 16 16 17 18 16 14 13 13 11 10 9 7 6 5 4 4 4 5 6 7 8 9 10 12 14 15 17 19 20 21 22 23
Wind_Direction
182 185 183 179 176 173 174 171 166 167 172 181 190 194 199 204 210 209 199 198 200 201 206 212 214 211 208 205 201 196 187 185 193 197 210 276 331 329 287 244 238 230 232 230 224 229 235 240 247 246 243 237 233 232 232 235 232 226 226 232 237 237 236 233 230 230 230 230 236 246 247 247 250 238 233 234 230 228 232 234 238 241 241 240 242
181 182 179 179 179 180 184 180 174 174 177 187 195 201 209 211 210 205 198 199 204 211 217 221 225 227 229 229 224 220 208 204 221 232 252 294 307 303 295 276 254 233 225 227 235 244 243 249 258 253 245 239 238 233 227 235 230 222 223 227 232 235 235 234 231 229 229 230 230 236 241 239 237 235 234 238 237 235 237 236 236 238 237 236 241
181 183 181 182 184 186 189 186 183 182 182 191 198 201 206 208 205 200 196 200 208 215 219 224 229 233 241 245 239 234 226 214 229 259 272 280 285 287 291 283 264 251 243 242 245 245 243 256 264 248 234 230 233 241 241 241 227 222 224 226 231 235 237 237 233 230 230 231 233 233 235 230 224 228 234 240 242 242 242 241 238 237 238 240 242
183 185 185 185 187 189 191 190 189 189 192 198 199 197 201 203 200 196 196 204 210 213 216 223 229 232 236 238 235 232 222 209 214 238 250 253 264 273 270 254 247 251 253 249 242 239 241 252 253 240 237 235 239 285 287 300 255 233 230 228 230 234 238 238 234 228 226 227 231 232 232 228 219 220 229 237 240 241 243 244 241 241 243 247 247
185 187 187 187 188 190 194 194 194 196 199 201 200 199 199 198 198 197 199 206 211 212 217 224 229 228 224 221 219 216 207 204 213 228 236 243 251 250 233 218 226 234 229 232 234 238 223 159 197 249 268 277 48 32 4 26 44 226 233 228 224 226 233 239 233 220 216 217 219 221 225 228 226 223 228 236 237 237 242 244 245 246 245 245 244
188 188 187 187 189 192 195 195 196 199 200 200 201 200 199 200 200 199 202 208 210 213 219 226 228 221 213 208 208 208 204 207 221 233 236 239 237 221 207 202 210 211 208 220 237 246 228 182 206 247 271 261 202 313 353 32 68 139 214 215 210 213 214 219 221 206 203 209 212 215 220 229 236 235 229 220 218 221 229 237 243 249 250 246 244
189 189 188 189 191 193 193 194 197 200 198 198 199 199 202 204 203 202 205 207 209 215 219 220 217 211 207 206 207 207 204 207 218 231 232 229 219 202 194 194 199 209 220 231 239 245 250 258 260 243 246 256 262 285 294 291 232 146 126 150 168 175 173 186 207 203 202 205 206 210 219 229 238 238 219 197 175 163 174 204 224 250 267 263 253
191 191 191 192 193 193 194 195 197 197 192 189 193 198 205 206 205 205 204 204 207 211 211 208 206 204 203 205 209 210 210 209 207 210 214 212 207 201 199 203 209 220 231 238 237 237 254 280 275 230 238 278 295 289 281 269 219 148 104 102 103 87 89 91 121 174 191 201 200 204 218 229 233 232 215 200 182 154 151 157 161 153 82 91 204
194 196 194 194 194 194 197 197 196 195 188 185 193 199 202 205 207 204 201 200 200 201 202 201 203 205 204 205 211 213 211 208 203 202 204 201 199 199 202 213 223 231 236 235 230 236 266 297 326 153 205 313 337 315 284 251 185 163 105 116 114 80 90 85 77 97 117 149 179 201 223 234 234 236 231 223 212 180 162 148 139 137 128 125 152
197 198 196 195 195 197 199 196 195 194 189 188 197 199 198 200 202 200 198 197 195 196 198 199 204 209 210 211 214 215 206 199 200 202 200 197 196 191 193 204 216 227 227 216 216 230 252 63 90 107 114 90 71 68 70 79 105 110 89 113 114 80 116 116 94 108 109 108 129 160 206 238 233 241 244 238 228 209 183 156 145 142 134 127 143
195 195 193 193 195 197 198 196 196 196 196 197 196 193 194 197 198 197 197 196 195 195 197 200 207 212 216 217 219 219 205 194 197 199 196 196 193 185 184 189 194 198 192 176 167 156 126 106 101 103 100 91 79 75 74 72 73 73 71 74 70 63 78 87 93 124 129 113 99 82 39 22 12 28 34 15 215 208 183 165 156 147 136 120 100
193 192 191 193 194 196 198 199 199 200 203 201 194 189 192 196 198 199 199 197 195 197 200 206 211 215 219 221 222 221 206 196 196 194 189 190 188 181 177 177 177 171 160 147 139 130 115 104 101 99 91 84 78 76 75 72 68 65 63 59 55 54 57 62 67 85 104 87 50 23 8 1 351 0 4 353 334 300 242 219 208 187 161 126 82
192 192 193 195 197 199 201 202 202 202 203 198 192 192 195 198 201 202 200 198 198 200 203 207 212 216 219 220 222 221 208 198 194 185 180 181 180 174 164 161 162 158 149 141 136 131 120 114 109 103 100 94 85 80 77 78 73 67 64 59 55 52 50 52 49 45 40 31 25 18 10 11 9 3 3 359 354 344 303 275 245 218 199 165 137
192 195 196 198 201 203 204 205 203 202 201 197 195 197 200 203 204 201 201 202 205 207 206 207 213 217 220 221 224 221 207 198 188 178 173 171 167 160 151 149 149 147 142 138 136 131 125 122 118 114 112 106 96 89 84 82 79 74 71 67 65 62 54 50 45 39 35 28 24 20 16 20 23 23 23 20 25 35 37 19 4 200 185 166 152
188 194 197 200 202 203 204 203 199 204 206 201 201 204 205 208 203 197 202 209 214 213 208 209 214 219 222 224 227 221 206 196 185 176 173 165 161 159 155 151 148 146 144 139 134 128 123 119 118 117 110 104 100 94 87 83 79 76 74 72 72 73 70 64 58 53 52 51 45 36 40 48 49 48 51 56 61 64 66 56 54 147 158 154 147
186 194 196 198 200 199 201 200 196 210 217 209 209 210 210 213 207 203 207 209 211 210 205 208 217 223 227 226 224 217 204 195 185 180 177 168 163 165 162 157 154 151 148 143 137 132 127 122 120 119 115 110 106 100 92 86 82 80 78 76 74 76 79 77 70 66 65 65 65 64 64 66 67 66 66 73 79 83 85 82 89 127 151 156 152
161 179 187 196 206 205 207 210 206 215 223 219 217 217 217 220 220 220 211 200 202 207 205 210 220 225 227 222 214 207 201 196 190 186 182 174 171 173 171 168 165 160 155 150 145 142 138 133 127 123 122 120 118 114 105 93 87 84 81 79 78 81 84 84 80 76 75 72 72 77 76 72 73 72 67 64 69 78 82 82 89 98 122 153 158
95 106 160 187 205 210 213 220 218 219 223 220 218 222 224 224 229 232 218 201 201 212 210 211 218 222 222 215 208 204 200 200 198 195 192 185 181 182 182 180 176 171 168 162 159 157 151 151 153 149 140 132 132 131 121 110 103 97 89 79 78 84 90 94 93 88 87 85 81 84 83 75 74 74 71 63 61 69 71 72 76 76 83 106 124
113 147 172 168 181 207 217 223 221 218 219 218 220 225 227 227 233 240 233 218 215 221 217 212 215 219 217 212 210 208 203 202 204 203 203 197 193 193 191 188 184 182 180 174 172 171 169 175 184 196 210 202 180 162 146 148 167 179 186 185 122 127 115 113 114 108 102 101 99 98 90 86 86 81 73 69 69 74 71 67 67 62 62 67 70
138 152 157 153 166 198 208 212 215 212 211 213 217 222 225 228 233 240 244 241 233 227 220 213 211 215 215 213 214 211 204 203 207 209 210 205 201 201 200 198 197 197 196 192 191 190 192 201 205 212 226 235 236 229 218 215 224 233 234 245 251 243 246 235 171 149 143 135 127 122 111 105 107 101 85 76 74 76 70 61 56 52 50 47 43
135 131 122 126 142 161 170 178 185 185 188 193 196 202 211 219 227 236 244 246 240 229 220 214 211 213 215 216 216 212 204 200 204 209 214 211 207 206 205 206 213 223 237 242 247 252 251 255 254 251 252 253 254 255 257 257 256 256 256 262 268 264 260 258 245 230 218 207 194 186 194 192 155 137 112 82 64 57 51 39 29 26 27 26 20
137 123 111 116 129 144 154 151 149 154 163 167 165 176 198 214 222 232 240 241 237 225 215 213 213 213 216 220 221 214 206 202 202 206 214 216 212 210 209 210 216 229 242 252 267 274 269 271 272 272 275 276 274 272 270 277 287 288 283 280 284 285 279 272 261 252 246 242 241 242 244 255 257 253 269 351 17 8 2 0 357 355 356 358 359
150 143 136 139 145 151 151 146 146 151 156 157 162 180 207 224 228 232 237 235 230 219 210 210 212 211 214 221 222 212 207 205 203 206 217 220 217 219 220 220 222 226 232 243 257 260 259 264 267 266 267 272 281 283 279 281 288 295 298 299 301 301 300 297 284 269 264 264 266 266 265 264 264 270 284 301 312 321 324 324 326 333 340 343 344
153 149 147 149 157 160 155 152 152 147 148 150 156 174 202 226 234 235 233 229 221 212 203 203 209 209 209 214 213 204 203 203 203 211 221 220 220 226 229 233 235 233 235 247 254 248 246 251 258 265 267 269 277 280 277 278 281 284 289 294 300 301 299 301 302 290 282 286 292 291 287 282 274 271 272 280 293 305 313 316 322 331 335 337 338
151 147 147 149 156 160 155 153 150 145 148 145 145 160 182 207 228 231 229 222 209 206 203 206 215 216 209 209 209 202 201 202 206 216 220 217 219 226 230 236 239 237 240 252 257 251 246 243 245 254 261 260 266 271 270 271 275 276 276 277 280 284 285 286 287 285 281 283 290 295 300 302 299 290 274 264 271 285 303 318 328 336 338 337 335
156 151 148 146 146 149 146 145 145 143 146 144 147 158 167 186 205 202 190 177 184 196 204 210 219 219 209 208 210 204 203 206 215 224 224 219 220 225 230 232 234 239 244 251 255 253 250 246 243 250 258 256 257 263 265 265 266 268 270 269 268 269 272 273 274 276 276 276 279 278 278 287 301 308 294 273 266 270 289 309 319 325 329 328 327
162 157 152 145 142 142 137 134 136 136 139 143 149 155 158 167 177 168 143 139 164 185 198 208 216 217 211 210 210 207 208 212 219 225 227 225 225 229 233 231 234 241 246 250 256 258 256 251 248 256 265 262 257 259 261 261 261 261 263 265 266 265 266 266 267 269 269 268 270 269 269 270 274 283 288 280 269 267 277 288 296 304 313 319 323
163 158 154 149 145 144 137 134 138 137 136 139 147 157 159 159 161 157 144 141 163 190 203 212 217 219 221 218 213 213 216 221 227 232 234 236 237 239 237 232 235 244 250 252 255 258 259 255 253 260 266 262 258 257 259 261 263 261 261 264 267 266 265 264 263 264 266 265 264 263 264 266 266 267 272 272 262 257 262 268 273 285 301 314 322
164 161 159 157 154 155 151 147 150 149 144 142 148 157 159 159 159 156 154 160 176 198 214 222 225 233 238 232 223 223 228 235 242 243 241 242 242 241 238 235 239 250 257 257 255 256 258 257 256 259 260 258 259 261 263 267 268 266 266 270 273 272 270 267 262 261 264 265 263 261 261 263 266 268 269 269 263 259 261 266 271 281 295 311 319
169 166 166 166 165 165 163 160 161 160 156 151 152 155 158 160 159 157 158 158 158 164 170 184 202 217 225 216 208 208 210 217 226 229 232 238 238 235 234 234 239 248 254 256 258 258 256 255 257 259 259 258 261 263 265 267 268 267 268 270 272 271 269 266 263 261 262 263 263 262 261 262 264 266 265 263 262 262 266 270 273 281 294 306 313
179 178 175 173 170 168 166 165 166 165 161 158 159 161 163 161 159 159 160 157 154 155 148 147 157 163 163 164 167 173 177 179 184 190 198 208 211 210 211 217 232 248 255 265 275 272 265 263 263 263 262 261 261 266 273 274 271 270 269 267 266 265 262 260 259 259 261 262 262 262 260 259 259 260 259 257 256 259 264 268 271 278 290 300 306
172 174 176 176 176 174 172 171 171 170 167 165 166 171 173 170 166 166 167 166 166 166 164 166 169 169 170 172 177 183 186 190 199 205 206 205 205 205 207 217 235 248 256 264 272 275 273 270 266 260 257 261 271 284 295 298 292 279 274 274 272 268 265 262 260 260 261 261 261 261 260 257 254 253 253 252 254 257 260 264 268 274 284 294 301
158 155 161 165 168 171 173 173 171 169 170 170 171 175 179 177 175 177 179 181 182 184 187 190 190 189 192 191 195 201 204 210 218 221 225 226 223 221 221 226 235 242 250 257 262 266 270 271 270 266 261 262 270 282 296 307 312 300 289 289 286 279 273 269 267 267 265 264 262 261 261 257 249 244 243 246 250 253 257 262 266 271 282 292 300
155 145 142 145 150 156 161 163 163 161 161 165 169 174 178 181 183 185 188 190 192 195 197 197 197 201 208 211 214 213 213 222 231 236 246 254 257 259 260 260 261 264 268 272 275 277 276 276 275 273 270 268 268 273 286 300 311 314 310 305 301 295 287 279 276 272 269 269 267 262 260 254 244 238 237 240 244 248 254 261 266 273 285 295 299
139 133 127 128 133 138 143 149 151 149 146 149 157 166 173 180 184 185 187 187 188 190 189 188 191 195 200 206 211 213 218 230 239 247 257 264 268 271 273 274 275 276 278 280 280 281 280 279 278 277 276 274 271 272 281 294 303 309 311 311 310 306 296 285 278 273 270 270 266 260 252 244 238 237 237 240 244 249 256 263 268 277 290 297 298
126 138 139 136 130 126 135 144 141 141 143 138 138 149 162 176 185 187 184 182 182 183 183 186 191 192 193 199 206 215 225 233 239 246 254 261 269 276 279 281 280 281 284 286 286 287 288 290 290 287 282 278 275 275 280 288 296 301 305 309 311 308 299 287 277 271 268 266 263 254 243 234 233 236 239 243 249 255 260 265 273 284 292 296 297
86 102 136 160 167 174 207 176 149 150 153 138 129 140 150 161 183 189 188 186 185 183 181 184 191 193 195 199 207 219 228 230 233 241 250 258 270 282 290 292 291 290 292 294 295 299 303 305 306 304 299 290 281 278 280 286 291 294 298 302 305 305 302 296 288 281 276 271 261 248 239 235 235 239 243 248 254 261 267 274 281 288 291 294 296
65 63 59 62 198 244 247 225 199 187 183 167 164 179 175 167 181 187 190 195 194 191 191 195 200 206 208 207 209 215 222 227 234 242 249 258 268 277 283 286 287 288 290 292 294 297 300 302 303 304 305 303 296 291 289 288 290 292 293 296 298 301 303 303 299 291 281 270 257 247 243 243 244 247 252 258 264 269 275 280 283 288 292 295 295
63 68 64 56 53 56 3 264 280 289 274 246 226 226 231 237 237 229 221 219 214 210 217 225 230 236 236 231 228 228 230 236 243 249 257 264 268 271 274 277 280 282 285 288 291 295 297 299 302 303 302 301 300 301 300 296 294 293 291 290 293 296 297 296 293 283 269 260 255 252 254 256 260 264 265 267 270 274 279 284 288 291 293 293 292
52 58 53 48 52 55 37 346 352 348 320 284 254 253 252 250 253 253 249 250 253 246 241 239 239 242 245 244 244 244 245 249 255 261 267 269 269 272 274 277 281 285 288 292 295 297 300 304 306 305 301 297 296 298 300 299 298 293 285 283 289 291 284 278 278 275 267 260 256 256 260 264 270 274 274 274 276 281 287 290 290 289 289 289 290
4 11 11 9 359 324 294 279 273 279 320 329 290 274 263 254 254 256 254 255 255 250 247 247 244 243 245 246 247 250 252 258 267 274 273 270 270 273 276 280 285 287 290 293 295 297 300 302 304 304 299 294 294 296 296 296 294 288 275 272 281 287 283 275 273 273 269 264 259 257 259 263 268 273 276 279 283 287 289 288 287 287 289 291 292
311 306 311 315 312 303 287 275 269 263 264 279 285 280 272 263 258 255 251 249 246 244 247 252 252 250 250 249 249 249 251 261 275 278 270 265 267 273 278 284 287 289 291 293 294 296 297 297 299 302 299 294 292 291 290 289 287 283 275 268 270 277 278 275 271 268 265 263 263 264 266 269 273 275 276 278 281 283 284 285 287 289 290 291 293
300 294 294 296 297 295 288 280 275 270 267 270 273 274 273 269 265 260 250 242 241 244 248 251 252 252 251 249 250 251 257 266 273 270 263 263 270 277 282 285 288 290 293 295 295 295 294 292 296 300 298 294 290 285 283 282 278 276 272 271 277 283 282 275 270 268 267 265 265 267 269 271 273 273 274 275 277 280 282 285 286 287 289 292 294
297 292 293 295 293 291 288 283 280 277 273 270 270 271 271 268 266 264 257 248 244 245 247 249 250 250 247 247 251 255 261 265 265 262 261 266 271 274 277 282 286 289 292 291 291 291 290 291 295 296 292 290 287 282 277 272 270 271 272 279 291 294 286 273 268 269 268 266 264 263 265 268 268 269 270 273 276 279 281 284 287 290 293 296 297
295 292 291 291 289 288 286 283 280 280 281 278 273 270 269 268 265 263 262 258 254 251 249 247 245 244 244 246 250 254 258 261 261 262 264 266 267 269 274 278 281 283 283 281 281 282 283 286 290 292 290 286 282 279 273 267 265 269 276 286 293 292 281 269 268 268 263 260 258 257 261 264 264 266 269 272 275 279 283 287 291 294 296 297 298
293 293 293 291 289 288 287 284 282 279 278 281 279 274 272 271 265 259 256 255 255 255 253 248 244 242 244 248 251 253 256 258 260 261 262 262 264 267 269 270 270 270 272 274 276 279 280 281 285 288 286 280 276 273 267 263 264 271 282 291 291 284 272 266 264 261 256 254 254 253 257 261 262 265 269 272 277 282 287 291 294 297 299 301 302
293 293 293 292 291 291 290 288 286 282 279 278 277 277 277 273 264 253 243 239 239 241 242 243 243 245 249 253 255 257 258 259 260 261 261 262 263 264 264 264 265 266 267 270 274 276 275 277 282 284 280 274 271 265 255 254 263 273 283 289 282 269 262 261 259 258 256 253 251 252 254 257 259 263 268 274 281 287 292 297 301 304 307 308 308
296 296 295 293 292 291 290 289 288 287 285 280 276 274 271 267 261 253 244 240 237 236 236 239 242 244 248 252 256 260 263 266 268 268 268 266 266 268 269 270 269 267 267 268 270 269 270 275 279 278 273 268 264 257 251 256 266 271 275 277 269 258 256 259 257 256 253 248 245 247 249 250 258 265 273 283 290 297 302 307 310 312 313 312 310
298 298 297 296 294 292 289 288 287 287 287 283 278 274 269 265 263 262 261 259 256 254 254 254 252 252 254 257 261 266 268 269 270 269 269 269 270 272 273 272 270 268 267 267 267 268 272 276 275 270 265 262 257 254 254 259 262 258 254 256 256 253 255 255 249 245 241 237 238 242 247 256 266 274 283 292 299 305 310 313 314 314 314 312 310
295 294 293 293 292 290 288 287 286 286 286 285 282 278 272 267 262 262 263 263 263 266 268 269 269 269 268 268 270 271 269 267 264 264 266 268 270 270 269 268 268 268 268 269 269 271 273 273 268 262 258 253 250 252 254 252 247 237 231 234 241 244 245 241 234 228 225 226 235 245 257 269 279 287 296 304 311 314 317 317 317 316 315 313 311
291 290 288 287 285 284 284 284 284 285 285 285 285 283 279 273 265 261 262 263 265 268 271 273 276 275 272 272 271 270 267 265 263 264 266 267 268 268 268 268 268 268 269 269 271 272 269 264 258 253 248 241 238 244 248 242 232 222 219 226 232 232 229 222 214 211 211 220 240 261 278 290 300 308 314 319 322 322 322 321 320 319 318 317 315
Height
1486 1488 1491 1494 1496 1499 1500 1501 1503 1504 1506 1507 1507 1508 1510 1511 1512 1514 1515 1516 1519 1521 1522 1522 1522 1523 1524 1524 1524 1525 1526 1526 1527 1527 1528 1528 1529 1529 1530 1530 1530 1531 1531 1531 1531 1532 1532 1533 1533 1533 1533 1533 1533 1533 1533 1533 1533 1533 1533 1533 1533 1534 1534 1535 1536 1536 1536 1537 1538 1539 1540 1540 1541 1541 1541 1542 1542 1543 1544 1544 1545 1546 1547 1547 1548
1487 1488 1491 1492 1494 1497 1499 1500 1501 1502 1503 1505 1506 1507 1510 1512 1513 1514 1515 1516 1519 1520 1522 1522 1523 1523 1524 1524 1524 1525 1525 1526 1526 1527 1527 1528 1528 1529 1529 1530 1531 1531 1531 1532 1532 1532 1532 1533 1533 1533 1533 1533 1533 1533 1533 1533 1533 1533 1533 1533 1533 1534 1534 1534 1535 1535 1535 1536 1537 1538 1539 1539 1540 1540 1540 1541 1541 1542 1543 1543 1544 1545 1546 1546 1547
1486 1488 1490 1491 1493 1495 1497 1499 1500 1501 1502 1503 1505 1508 1511 1512 1514 1514 1515 1516 1518 1520 1521 1522 1523 1524 1525 1525 1525 1525 1525 1525 1526 1526 1527 1528 1528 1529 1529 1530 1530 1531 1532 1532 1532 1532 1532 1533 1533 1533 1533 1533 1533 1533 1533 1533 1533 1533 1533 1533 1533 1533 1533 1534 1534 1534 1535 1535 1536 1537 1537 1538 1539 1540 1540 1540 1540 1541 1542 1542 1543 1544 1545 1545 1546
1485 1487 1490 1491 1492 1494 1495 1497 1499 1501 1503 1503 1506 1509 1510 1512 1513 1514 1515 1517 1519 1520 1521 1523 1523 1524 1525 1525 1525 1525 1525 1525 1526 1527 1527 1528 1528 1529 1529 1529 1530 1531 1532 1532 1533 1533 1533 1533 1533 1533 1533 1533 1534 1534 1534 1533 1533 1533 1532 1532 1532 1532 1533 1533 1533 1534 1534 1535 1535 1536 1537 1537 1538 1538 1539 1539 1540 1540 1541 1541 1542 1542 1543 1544 1544
1483 1485 1487 1489 1490 1492 1494 1496 1499 1501 1503 1504 1507 1509 1510 1512 1513 1514 1515 1517 1518 1520 1522 1523 1523 1524 1524 1525 1525 1525 1525 1526 1526 1527 1528 1528 1529 1529 1529 1529 1530 1530 1531 1532 1533 1533 1533 1533 1533 1533 1534 1534 1534 1534 1534 1534 1534 1533 1533 1532 1532 1532 1532 1532 1533 1533 1534 1534 1535 1535 1536 1536 1536 1537 1538 1538 1539 1540 1540 1540 1540 1541 1541 1542 1543
1482 1484 1486 1488 1490 1492 1494 1496 1498 1500 1503 1505 1508 1509 1510 1511 1512 1513 1515 1517 1518 1520 1522 1522 1523 1523 1524 1524 1524 1525 1525 1526 1527 1527 1528 1528 1529 1529 1530 1530 1530 1531 1531 1532 1533 1533 1533 1533 1533 1533 1534 1535 1535 1535 1535 1535 1534 1534 1533 1533 1532 1532 1532 1532 1532 1532 1533 1533 1534 1534 1535 1535 1535 1536 1537 1538 1538 1539 1539 1539 1540 1540 1541 1541 1542
1484 1485 1487 1488 1490 1492 1494 1496 1498 1500 1503 1506 1508 1510 1511 1511 1512 1513 1515 1517 1519 1520 1521 1522 1523 1524 1524 1525 1525 1526 1526 1527 1528 1528 1528 1529 1529 1530 1530 1531 1531 1531 1532 1532 1533 1533 1532 1532 1532 1533 1534 1535 1535 1535 1535 1535 1535 1534 1534 1533 1533 1533 1532 1532 1532 1532 1532 1533 1533 1534 1534 1535 1535 1535 1536 1537 1538 1538 1539 1539 1539 1540 1540 1540 1541
1484 1485 1487 1488 1490 1491 1493 1495 1497 1500 1502 1504 1506 1508 1509 1510 1512 1513 1515 1517 1518 1520 1521 1522 1523 1524 1525 1526 1526 1527 1527 1528 1528 1528 1529 1529 1530 1530 1531 1532 1532 1532 1533 1533 1533 1533 1532 1532 1532 1533 1533 1534 1535 1534 1534 1534 1535 1535 1534 1534 1534 1533 1533 1533 1532 1532 1532 1532 1533 1533 1534 1534 1535 1535 1536 1536 1537 1538 1538 1539 1539 1539 1540 1540 1540
1483 1485 1486 1487 1490 1491 1493 1494 1496 1498 1499 1500 1502 1504 1506 1508 1511 1512 1514 1516 1517 1519 1521 1522 1523 1525 1526 1527 1528 1528 1528 1528 1528 1529 1530 1530 1531 1531 1532 1532 1533 1533 1534 1534 1533 1533 1532 1532 1532 1532 1533 1534 1534 1534 1534 1534 1534 1535 1535 1535 1534 1534 1534 1533 1533 1533 1533 1533 1533 1533 1534 1534 1535 1535 1535 1536 1537 1537 1538 1539 1539 1540 1540 1540 1540
1484 1486 1486 1487 1489 1490 1492 1494 1495 1496 1497 1498 1499 1502 1504 1506 1509 1511 1512 1514 1516 1518 1520 1522 1524 1525 1526 1527 1528 1528 1528 1528 1529 1530 1531 1531 1531 1531 1532 1533 1533 1534 1534 1534 1534 1533 1533 1532 1532 1532 1533 1534 1534 1534 1534 1534 1534 1535 1535 1535 1534 1534 1534 1534 1534 1534 1534 1534 1534 1534 1534 1535 1535 1535 1535 1536 1536 1537 1538 1539 1539 1540 1540 1540 1540
1484 1486 1488 1489 1490 1491 1492 1493 1495 1497 1500 1500 1500 1501 1503 1505 1507 1508 1511 1513 1515 1517 1519 1521 1523 1524 1526 1526 1527 1528 1528 1528 1529 1530 1531 1532 1532 1532 1532 1533 1533 1534 1534 1534 1534 1534 1533 1533 1533 1533 1534 1534 1535 1534 1534 1535 1535 1535 1535 1535 1534 1534 1534 1534 1534 1534 1534 1535 1535 1535 1535 1535 1535 1536 1536 1536 1536 1537 1538 1538 1539 1540 1540 1540 1540
1484 1486 1488 1489 1490 1490 1491 1491 1493 1496 1499 1500 1499 1500 1502 1503 1505 1507 1509 1512 1514 1517 1519 1520 1522 1523 1524 1525 1526 1527 1528 1529 1530 1531 1532 1532 1533 1533 1533 1534 1534 1534 1535 1535 1534 1534 1533 1533 1534 1534 1535 1535 1535 1535 1535 1535 1535 1535 1535 1535 1535 1535 1534 1534 1534 1534 1535 1535 1535 1535 1536 1536 1536 1536 1536 1536 1536 1537 1537 1538 1538 1539 1540 1540 1540
1484 1486 1487 1488 1489 1488 1488 1489 1490 1491 1493 1495 1497 1498 1500 1501 1503 1505 1508 1511 1513 1515 1516 1517 1519 1520 1522 1524 1525 1527 1528 1529 1531 1532 1532 1533 1534 1534 1534 1534 1535 1535 1535 1535 1534 1534 1534 1534 1534 1535 1535 1536 1536 1536 1536 1536 1536 1536 1536 1536 1536 1535 1535 1535 1535 1535 1535 1536 1536 1536 1536 1536 1536 1536 1537 1536 1536 1537 1537 1537 1538 1539 1540 1540 1541
1484 1486 1486 1487 1487 1487 1487 1487 1488 1491 1492 1494 1496 1497 1498 1500 1501 1504 1508 1510 1511 1512 1513 1515 1518 1520 1523 1524 1525 1526 1528 1529 1530 1532 1533 1534 1534 1535 1535 1535 1536 1536 1535 1535 1534 1534 1534 1534 1535 1535 1536 1536 1537 1537 1537 1537 1537 1537 1537 1537 1536 1536 1536 1536 1536 1536 1536 1536 1536 1536 1536 1536 1537 1537 1537 1537 1537 1537 1537 1537 1537 1538 1539 1540 1541
1484 1485 1485 1485 1485 1485 1487 1486 1489 1495 1496 1495 1496 1496 1498 1498 1500 1505 1510 1511 1513 1513 1515 1517 1520 1522 1523 1524 1525 1526 1527 1529 1530 1531 1532 1534 1535 1536 1536 1536 1536 1537 1536 1535 1534 1534 1534 1534 1535 1536 1537 1537 1537 1538 1538 1538 1538 1538 1538 1538 1537 1537 1537 1537 1537 1537 1537 1537 1537 1537 1537 1537 1537 1537 1537 1537 1537 1537 1537 1537 1537 1538 1539 1540 1541
1484 1485 1484 1484 1485 1485 1486 1487 1492 1498 1498 1496 1496 1496 1498 1498 1500 1505 1507 1510 1514 1516 1518 1521 1522 1522 1522 1523 1525 1526 1527 1528 1529 1530 1532 1533 1535 1536 1537 1537 1537 1537 1536 1536 1535 1534 1534 1535 1536 1537 1537 1538 1538 1539 1539 1539 1539 1539 1539 1539 1539 1538 1538 1538 1538 1538 1538 1538 1538 1538 1538 1538 1538 1538 1538 1538 1538 1538 1538 1538 1538 1538 1539 1540 1541
1484 1484 1484 1486 1488 1487 1486 1488 1493 1497 1498 1498 1497 1497 1498 1498 1499 1501 1501 1506 1513 1516 1519 1521 1520 1521 1521 1522 1524 1525 1527 1528 1528 1530 1531 1533 1534 1536 1537 1537 1537 1537 1536 1536 1535 1535 1535 1535 1536 1537 1538 1539 1539 1539 1540 1540 1540 1541 1540 1540 1540 1540 1540 1539 1539 1539 1539 1539 1539 1539 1539 1539 1539 1539 1539 1539 1539 1539 1539 1539 1539 1539 1539 1540 1540
1487 1489 1489 1490 1489 1489 1489 1490 1493 1495 1497 1498 1497 1498 1499 1498 1499 1499 1499 1504 1511 1514 1516 1517 1517 1519 1520 1521 1523 1525 1526 1527 1528 1530 1531 1532 1534 1535 1536 1537 1537 1537 1536 1536 1536 1535 1535 1536 1537 1538 1538 1539 1539 1540 1540 1541 1541 1542 1542 1542 1541 1541 1541 1540 1540 1540 1540 1540 1540 1540 1540 1540 1540 1540 1540 1540 1540 1540 1540 1540 1540 1540 1540 1540 1541
1491 1494 1495 1492 1490 1490 1491 1491 1493 1494 1496 1497 1497 1498 1499 1499 1500 1500 1501 1505 1509 1511 1513 1515 1516 1517 1519 1520 1522 1523 1525 1527 1528 1530 1531 1532 1534 1535 1536 1537 1537 1537 1537 1536 1536 1536 1536 1537 1537 1538 1539 1539 1540 1540 1540 1541 1541 1542 1542 1542 1542 1542 1542 1541 1541 1541 1541 1541 1541 1541 1541 1541 1541 1541 1541 1541 1541 1541 1541 1541 1541 1541 1541 1541 1541
1494 1497 1496 1492 1490 1491 1492 1493 1494 1494 1496 1497 1498 1499 1500 1501 1501 1501 1502 1505 1508 1510 1512 1513 1514 1516 1518 1520 1522 1523 1525 1526 1528 1529 1531 1532 1534 1535 1536 1537 1537 1537 1537 1537 1537 1537 1537 1538 1538 1539 1539 1540 1540 1540 1540 1541 1541 1542 1542 1543 1543 1543 1542 1542 1542 1542 1542 1542 1542 1542 1542 1542 1542 1542 1542 1542 1542 1542 1541 1541 1541 1541 1541 1541 1541
1496 1497 1495 1492 1492 1493 1494 1495 1495 1495 1496 1497 1498 1500 1500 1501 1501 1502 1502 1503 1505 1508 1510 1512 1514 1516 1518 1520 1521 1524 1525 1526 1527 1529 1530 1531 1533 1534 1535 1536 1537 1537 1537 1537 1537 1537 1538 1539 1539 1540 1540 1540 1540 1540 1540 1540 1541 1541 1542 1542 1543 1543 1543 1542 1542 1542 1542 1542 1542 1542 1542 1542 1542 1542 1542 1542 1542 1542 1542 1542 1541 1541 1541 1541 1541
1495 1495 1494 1494 1494 1496 1496 1496 1496 1496 1497 1498 1499 1500 1500 1501 1502 1502 1503 1503 1504 1506 1509 1511 1513 1516 1519 1521 1522 1524 1525 1526 1526 1528 1529 1531 1532 1533 1534 1534 1535 1536 1536 1537 1537 1538 1538 1539 1540 1540 1541 1541 1541 1541 1541 1541 1541 1541 1542 1542 1542 1542 1542 1542 1542 1542 1542 1542 1541 1541 1542 1542 1542 1542 1542 1542 1542 1542 1542 1541 1541 1541 1541 1541 1541
1493 1493 1494 1496 1497 1497 1497 1497 1497 1497 1498 1499 1500 1500 1500 1501 1502 1502 1503 1503 1504 1506 1509 1511 1513 1516 1519 1521 1522 1524 1526 1526 1526 1527 1529 1530 1531 1533 1533 1533 1534 1534 1535 1536 1536 1537 1538 1539 1539 1540 1540 1541 1541 1541 1541 1541 1541 1541 1541 1542 1542 1542 1542 1542 1542 1542 1542 1542 1541 1541 1541 1541 1541 1541 1542 1541 1541 1541 1541 1541 1541 1541 1540 1540 1540
1493 1492 1494 1496 1497 1498 1498 1497 1498 1498 1498 1499 1500 1500 1500 1500 1501 1502 1503 1503 1504 1506 1509 1511 1512 1514 1516 1518 1519 1521 1523 1524 1524 1525 1527 1529 1530 1531 1532 1533 1533 1534 1534 1535 1535 1536 1537 1538 1539 1539 1540 1540 1540 1541 1541 1541 1541 1540 1541 1541 1541 1541 1542 1542 1542 1542 1542 1542 1541 1541 1541 1541 1541 1541 1541 1541 1541 1541 1541 1541 1541 1540 1540 1540 1540
1495 1494 1494 1496 1497 1498 1498 1498 1498 1498 1498 1499 1500 1500 1500 1500 1501 1502 1502 1503 1505 1507 1509 1510 1512 1513 1515 1517 1518 1519 1521 1522 1523 1525 1526 1527 1528 1529 1530 1531 1532 1533 1533 1534 1535 1535 1535 1536 1537 1538 1538 1539 1539 1540 1540 1540 1540 1540 1540 1540 1540 1540 1541 1541 1541 1541 1541 1541 1541 1541 1541 1541 1541 1540 1541 1541 1541 1540 1540 1540 1540 1540 1540 1540 1539
1496 1496 1496 1496 1497 1498 1498 1498 1499 1499 1499 1499 1500 1501 1501 1501 1502 1502 1503 1504 1505 1507 1509 1511 1512 1513 1515 1517 1518 1520 1521 1522 1524 1525 1525 1526 1527 1527 1528 1530 1531 1531 1532 1532 1533 1534 1534 1535 1535 1536 1537 1537 1537 1538 1538 1538 1539 1539 1538 1539 1539 1539 1539 1539 1540 1540 1540 1540 1540 1540 1540 1540 1540 1540 1540 1540 1540 1540 1540 1540 1539 1539 1539 1539 1539
1495 1496 1496 1496 1497 1498 1498 1499 1500 1500 1500 1500 1500 1501 1502 1502 1502 1503 1504 1505 1506 1508 1510 1511 1512 1513 1515 1517 1518 1519 1520 1522 1524 1524 1525 1526 1526 1526 1527 1528 1529 1530 1530 1531 1531 1532 1533 1533 1534 1534 1535 1535 1535 1535 1536 1536 1536 1536 1536 1536 1537 1537 1538 1538 1538 1538 1539 1539 1539 1539 1539 1539 1539 1540 1540 1540 1540 1539 1539 1539 1539 1538 1538 1538 1538
1495 1495 1495 1495 1496 1498 1498 1499 1501 1502 1501 1501 1501 1502 1502 1503 1503 1504 1505 1506 1507 1508 1509 1510 1511 1513 1514 1515 1517 1518 1519 1521 1522 1523 1524 1525 1525 1525 1526 1526 1527 1528 1529 1529 1529 1530 1531 1532 1532 1532 1533 1533 1533 1533 1533 1534 1534 1534 1534 1534 1535 1535 1536 1536 1536 1537 1537 1537 1537 1537 1537 1537 1538 1538 1538 1538 1538 1538 1538 1538 1537 1537 1537 1536 1536
1494 1495 1495 1495 1496 1497 1497 1499 1501 1503 1502 1502 1502 1502 1503 1504 1504 1505 1506 1507 1508 1509 1509 1510 1511 1512 1513 1514 1515 1517 1519 1521 1522 1522 1523 1524 1524 1524 1525 1525 1526 1527 1527 1527 1527 1528 1528 1528 1529 1529 1530 1531 1531 1531 1531 1531 1531 1532 1532 1532 1532 1532 1533 1534 1534 1535 1535 1535 1535 1535 1535 1535 1536 1536 1537 1537 1537 1536 1536 1536 1536 1535 1535 1534 1534
1495 1495 1496 1496 1497 1497 1497 1498 1500 1502 1502 1502 1502 1503 1503 1504 1505 1506 1507 1508 1509 1509 1510 1511 1511 1512 1513 1514 1515 1517 1520 1522 1522 1522 1523 1524 1523 1523 1523 1524 1525 1525 1524 1524 1525 1527 1527 1527 1528 1528 1528 1528 1528 1528 1528 1528 1528 1529 1529 1529 1529 1530 1531 1532 1532 1532 1532 1533 1533 1533 1533 1533 1534 1534 1535 1535 1535 1535 1534 1534 1534 1534 1533 1533 1532
1494 1495 1496 1497 1498 1499 1499 1499 1500 1502 1502 1502 1503 1503 1504 1505 1506 1507 1508 1509 1509 1510 1511 1512 1513 1514 1514 1515 1517 1519 1520 1522 1522 1523 1523 1523 1523 1522 1522 1522 1522 1522 1522 1523 1524 1526 1527 1527 1527 1527 1526 1526 1526 1526 1526 1526 1526 1526 1526 1527 1527 1528 1528 1529 1529 1529 1530 1530 1530 1530 1531 1531 1531 1532 1532 1533 1533 1533 1532 1532 1532 1532 1531 1531 1530
1493 1494 1496 1497 1499 1500 1501 1502 1502 1503 1503 1503 1503 1504 1505 1505 1506 1507 1508 1508 1509 1510 1511 1512 1513 1514 1515 1517 1518 1519 1520 1520 1521 1521 1522 1522 1522 1521 1521 1522 1521 1522 1522 1523 1524 1525 1526 1526 1526 1526 1525 1525 1524 1525 1525 1525 1525 1525 1525 1525 1526 1526 1526 1526 1526 1526 1526 1527 1527 1527 1528 1528 1529 1529 1530 1530 1530 1531 1531 1530 1530 1530 1529 1529 1528
1494 1494 1495 1496 1498 1499 1501 1503 1503 1504 1504 1504 1504 1505 1505 1506 1506 1507 1507 1508 1508 1509 1510 1511 1512 1513 1514 1515 1516 1517 1518 1518 1519 1519 1520 1520 1520 1520 1521 1521 1521 1522 1522 1523 1524 1524 1524 1525 1525 1524 1524 1524 1524 1524 1524 1524 1524 1524 1524 1524 1524 1525 1524 1524 1524 1524 1524 1524 1524 1524 1525 1525 1526 1527 1528 1528 1529 1529 1529 1528 1528 1528 1528 1527 1526
1495 1495 1495 1496 1498 1499 1501 1502 1503 1504 1504 1505 1505 1506 1506 1506 1506 1507 1507 1507 1508 1508 1509 1510 1511 1512 1513 1514 1515 1515 1516 1517 1517 1518 1518 1518 1519 1519 1519 1520 1520 1521 1521 1522 1522 1523 1523 1523 1523 1523 1523 1522 1522 1523 1523 1523 1523 1523 1523 1523 1523 1523 1523 1522 1522 1522 1522 1522 1522 1522 1522 1523 1524 1525 1526 1526 1526 1526 1526 1526 1526 1526 1525 1525 1525
1497 1497 1498 1498 1498 1500 1501 1502 1502 1503 1504 1505 1506 1507 1507 1507 1507 1507 1507 1507 1507 1508 1509 1510 1510 1511 1512 1513 1514 1515 1515 1516 1516 1517 1517 1517 1517 1518 1518 1519 1519 1519 1520 1520 1521 1521 1521 1521 1521 1521 1521 1521 1521 1521 1521 1521 1521 1521 1521 1521 1521 1521 1520 1520 1520 1519 1519 1519 1519 1519 1520 1521 1522 1523 1523 1524 1524 1524 1524 1524 1524 1524 1524 1523 1522
1500 1500 1501 1500 1499 1500 1502 1503 1503 1503 1503 1505 1507 1508 1508 1508 1508 1507 1507 1507 1507 1508 1509 1509 1510 1511 1511 1512 1513 1513 1514 1515 1515 1516 1516 1516 1516 1517 1517 1518 1518 1518 1519 1519 1519 1519 1519 1519 1519 1519 1519 1519 1519 1519 1519 1519 1519 1519 1519 1519 1519 1518 1518 1518 1517 1517 1517 1517 1517 1517 1518 1519 1520 1521 1522 1522 1522 1522 1522 1522 1522 1522 1522 1521 1520
1502 1502 1502 1502 1501 1502 1504 1506 1506 1506 1505 1505 1506 1507 1507 1508 1509 1508 1508 1508 1508 1508 1508 1509 1510 1510 1511 1511 1511 1512 1513 1514 1514 1515 1515 1515 1516 1516 1516 1516 1517 1517 1517 1518 1518 1518 1518 1518 1518 1518 1517 1517 1517 1517 1518 1518 1518 1518 1517 1517 1517 1516 1516 1516 1516 1516 1516 1516 1516 1517 1518 1519 1519 1520 1520 1520 1520 1520 1520 1520 1520 1520 1520 1519 1518
1503 1503 1503 1503 1503 1504 1505 1506 1507 1507 1506 1506 1507 1507 1507 1508 1509 1509 1508 1508 1508 1508 1509 1509 1510 1510 1511 1511 1511 1511 1512 1512 1513 1514 1514 1514 1515 1515 1515 1515 1516 1516 1516 1516 1516 1516 1516 1516 1516 1516 1516 1516 1516 1516 1516 1516 1516 1516 1516 1515 1515 1515 1514 1514 1514 1514 1515 1515 1516 1516 1517 1518 1518 1518 1519 1519 1519 1519 1519 1518 1518 1518 1517 1516 1515
1503 1503 1503 1503 1504 1504 1505 1505 1505 1506 1506 1506 1507 1508 1508 1509 1509 1508 1507 1507 1507 1508 1508 1509 1509 1510 1510 1510 1510 1510 1511 1511 1512 1512 1513 1513 1513 1514 1514 1514 1514 1515 1515 1515 1515 1515 1515 1515 1515 1515 1515 1514 1514 1514 1514 1514 1514 1514 1514 1514 1513 1513 1513 1513 1514 1514 1514 1515 1515 1516 1516 1517 1517 1517 1517 1517 1517 1517 1517 1516 1516 1515 1514 1513 1512
1503 1503 1503 1503 1503 1504 1504 1504 1504 1504 1504 1505 1505 1506 1507 1507 1507 1507 1506 1506 1507 1508 1508 1508 1509 1509 1509 1509 1509 1509 1510 1510 1510 1511 1511 1512 1512 1512 1513 1513 1513 1513 1513 1514 1514 1514 1514 1514 1514 1514 1513 1513 1513 1513 1513 1512 1512 1512 1512 1512 1512 1512 1513 1513 1513 1513 1514 1514 1514 1515 1515 1515 1515 1516 1515 1515 1515 1515 1515 1514 1513 1513 1512 1510 1509
1504 1504 1503 1503 1503 1503 1503 1503 1503 1503 1503 1503 1503 1503 1504 1505 1505 1505 1504 1505 1506 1506 1507 1507 1507 1508 1508 1508 1508 1508 1508 1508 1509 1510 1510 1511 1511 1511 1511 1512 1512 1512 1512 1512 1513 1513 1513 1513 1513 1512 1512 1512 1512 1512 1511 1511 1511 1511 1511 1511 1511 1511 1511 1512 1512 1513 1513 1513 1513 1513 1513 1513 1513 1513 1514 1513 1513 1513 1512 1512 1511 1510 1509 1507 1506
1504 1504 1503 1503 1503 1503 1503 1503 1503 1502 1502 1501 1501 1501 1502 1502 1502 1502 1503 1503 1504 1504 1505 1505 1505 1505 1505 1505 1506 1506 1506 1507 1508 1508 1509 1509 1510 1510 1510 1510 1510 1510 1511 1511 1511 1511 1511 1512 1511 1511 1511 1511 1511 1511 1510 1510 1510 1510 1510 1510 1510 1510 1510 1510 1511 1511 1511 1512 1512 1511 1511 1511 1511 1511 1511 1511 1510 1510 1509 1509 1508 1507 1505 1504 1502
1504 1503 1503 1502 1502 1502 1502 1501 1501 1501 1501 1500 1500 1500 1500 1500 1500 1501 1501 1501 1502 1502 1503 1503 1503 1504 1504 1504 1504 1504 1504 1505 1506 1506 1507 1507 1508 1508 1508 1508 1508 1509 1509 1509 1509 1510 1510 1510 1510 1510 1510 1510 1510 1509 1509 1509 1509 1509 1509 1509 1509 1509 1509 1509 1509 1509 1509 1509 1510 1509 1509 1509 1509 1509 1509 1508 1508 1507 1507 1506 1505 1504 1502 1501 1500
1502 1502 1501 1501 1500 1500 1500 1500 1500 1499 1499 1498 1498 1498 1498 1498 1498 1499 1499 1499 1500 1500 1500 1501 1501 1501 1501 1501 1501 1502 1502 1503 1504 1504 1505 1505 1506 1506 1506 1506 1507 1507 1507 1507 1507 1508 1508 1508 1508 1508 1508 1508 1508 1508 1508 1508 1508 1508 1508 1508 1508 1508 1507 1507 1507 1507 1507 1507 1507 1508 1508 1508 1508 1507 1507 1506 1506 1505 1504 1503 1502 1501 1500 1498 1497
1499 1499 1499 1498 1498 1498 1497 1497 1497 1497 1497 1496 1496 1495 1495 1496 1496 1496 1497 1497 1497 1497 1498 1498 1498 1499 1499 1499 1499 1499 1500 1500 1501 1502 1502 1503 1503 1503 1504 1504 1504 1505 1505 1505 1506 1506 1506 1506 1506 1506 1506 1506 1506 1507 1507 1507 1507 1507 1507 1507 1507 1506 1506 1505 1505 1505 1505 1505 1506 1506 1506 1506 1506 1505 1505 1504 1504 1503 1502 1501 1500 1499 1497 1496 1495
1497 1496 1496 1495 1495 1495 1494 1494 1494 1495 1495 1494 1494 1493 1493 1493 1493 1494 1494 1494 1495 1495 1495 1495 1495 1496 1496 1496 1496 1497 1497 1497 1498 1498 1499 1500 1500 1501 1501 1501 1502 1502 1503 1503 1503 1504 1504 1504 1504 1504 1504 1504 1504 1504 1505 1505 1505 1505 1505 1505 1505 1504 1504 1504 1504 1504 1504 1504 1504 1504 1504 1504 1504 1503 1503 1502 1502 1501 1500 1499 1498 1497 1495 1494 1492
1494 1493 1493 1492 1491 1491 1490 1490 1490 1491 1491 1491 1491 1491 1491 1491 1491 1491 1491 1491 1492 1492 1492 1492 1493 1493 1493 1494 1494 1494 1494 1495 1495 1495 1496 1497 1497 1497 1498 1498 1498 1499 1499 1500 1500 1501 1501 1501 1502 1502 1502 1501 1502 1502 1502 1502 1502 1503 1503 1503 1502 1502 1502 1503 1503 1503 1503 1502 1502 1502 1502 1502 1502 1502 1501 1501 1500 1499 1498 1497 1496 1495 1493 1492 1490
1491 1491 1490 1489 1488 1487 1486 1486 1486 1486 1487 1487 1488 1488 1489 1489 1489 1489 1489 1489 1489 1489 1489 1490 1490 1490 1490 1491 1491 1491 1492 1492 1492 1492 1493 1493 1493 1494 1494 1494 1495 1495 1496 1496 1497 1497 1498 1498 1499 1499 1499 1499 1499 1499 1500 1500 1500 1501 1501 1501 1501 1501 1501 1501 1502 1501 1501 1501 1501 1501 1501 1501 1501 1500 1500 1499 1499 1498 1497 1496 1494 1493 1492 1491 1489
1488 1488 1487 1486 1485 1484 1483 1483 1482 1483 1483 1483 1483 1484 1485 1485 1486 1486 1486 1486 1486 1486 1487 1487 1487 1487 1487 1488 1488 1488 1489 1489 1489 1489 1489 1489 1490 1490 1490 1491 1491 1492 1492 1493 1493 1494 1494 1495 1495 1496 1496 1496 1496 1497 1498 1498 1499 1499 1499 1499 1499 1500 1500 1500 1500 1500 1500 1500 1500 1500 1500 1500 1500 1499 1499 1498 1497 1496 1495 1494 1493 1492 1491 1489 1488
1485 1484 1483 1483 1482 1481 1480 1480 1479 1479 1479 1479 1479 1480 1481 1481 1482 1482 1483 1482 1483 1483 1483 1483 1484 1484 1484 1484 1484 1484 1485 1485 1485 1485 1486 1486 1486 1486 1487 1487 1488 1488 1489 1489 1489 1490 1491 1491 1492 1492 1493 1493 1494 1495 1495 1496 1497 1497 1498 1498 1499 1499 1499 1499 1499 1500 1500 1500 1500 1500 1500 1499 1499 1498 1497 1496 1496 1495 1494 1493 1491 1490 1489 1487 1485
1481 1480 1479 1479 1478 1477 1477 1476 1476 1476 1476 1475 1475 1476 1476 1477 1477 1478 1478 1479 1479 1479 1479 1480 1480 1480 1480 1480 1480 1481 1481 1481 1481 1482 1482 1482 1482 1482 1483 1483 1484 1484 1485 1485 1485 1486 1487 1487 1488 1489 1489 1490 1491 1492 1493 1494 1495 1496 1497 1497 1498 1498 1498 1499 1499 1499 1499 1499 1499 1499 1498 1498 1497 1497 1496 1495 1494 1493 1492 1491 1489 1488 1487 1485 1483